Lid_Strength_Index
15 15 15 15 15 16 16 17 17 17 17 17 17 17 17 18 18 18 18 18 19 18 18 18 18 17 18 17 16 16 16 16 18 17 16 15 16 16 15 14 14 14 14
15 15 15 15 16 16 17 17 17 17 17 17 17 17 17 18 18 18 19 19 19 19 18 18 18 16 17 16 16 17 16 16 17 18 17 16 16 15 15 16 15 13 14
15 15 16 16 17 17 17 18 17 18 18 18 18 17 18 18 18 18 18 18 19 18 18 17 17 17 16 16 17 17 16 15 16 17 17 15 15 14 15 14 14 14 13
15 16 17 17 17 17 17 18 18 18 18 18 18 18 18 18 18 18 18 18 18 18 16 16 16 16 16 16 16 16 15 16 15 16 16 15 14 13 14 15 15 14 14
16 16 17 17 17 17 17 17 18 18 18 18 18 18 19 19 18 18 17 17 17 16 16 15 15 15 14 14 14 15 15 15 15 15 15 15 15 15 15 14 15 14 13
16 16 16 16 16 17 17 18 18 18 18 18 18 19 19 18 15 15 15 16 16 16 16 16 15 15 15 13 12 12 11 13 14 14 14 15 14 13 13 14 14 15 16
16 16 16 16 16 17 17 18 18 18 18 19 19 19 19 19 15 14 14 15 15 16 16 15 15 14 15 14 13 11 10 9 9 10 12 13 13 12 12 13 13 13 14
16 15 15 16 16 17 18 18 18 18 19 19 19 19 19 18 14 14 13 15 16 15 15 15 15 15 14 12 12 11 10 10 10 10 11 11 10 9 9 10 11 11 11
15 15 15 16 17 18 18 18 18 18 19 19 18 19 19 18 14 13 14 15 15 15 14 14 14 13 11 9 10 11 12 12 10 8 8 8 8 8 9 11 14 14 15
14 14 15 15 16 17 17 18 18 18 19 18 17 19 18 21 15 13 13 15 19 15 14 13 10 11 9 8 9 12 15 13 11 12 12 12 11 12 10 12 13 15 15
14 15 15 15 16 16 17 18 19 19 18 19 19 20 21 19 19 13 12 14 15 16 14 13 11 9 8 7 7 12 12 10 13 14 15 14 14 13 13 13 13 14 16
16 16 16 16 16 17 17 19 19 19 20 22 23 22 20 18 16 13 11 10 11 16 15 12 11 8 7 7 9 9 8 10 15 16 16 16 15 14 14 13 13 13 13
16 16 16 17 17 17 18 19 20 22 21 22 20 21 19 17 17 11 10 9 9 12 12 10 7 7 8 10 10 9 12 16 16 17 16 15 14 14 13 14 13 12 12
16 18 18 18 19 19 18 19 20 21 21 20 20 19 19 18 16 16 15 15 11 11 10 12 11 9 10 11 14 13 14 15 15 16 16 14 14 14 15 14 15 14 14
17 18 19 19 19 21 20 20 19 19 18 20 19 19 20 20 17 14 15 17 16 13 12 16 18 20 18 17 17 16 16 15 16 16 16 16 15 15 15 14 14 14 15
19 20 20 20 21 20 20 22 14 14 13 12 12 17 19 13 11 10 9 8 7 7 16 20 22 21 19 18 19 18 16 16 16 16 16 16 16 16 15 14 13 15 16
18 19 20 20 20 20 20 19 20 18 11 11 10 9 10 12 9 8 8 7 7 7 17 21 23 21 20 18 19 18 17 16 17 17 17 17 16 16 16 15 15 15 16
22 21 20 19 19 19 19 19 19 19 18 17 12 10 9 9 8 8 8 8 15 17 20 21 23 21 21 20 20 20 19 18 18 18 18 18 18 17 17 16 16 16 16
21 20 20 20 20 20 20 21 21 21 23 22 21 16 14 12 10 9 9 16 18 20 19 21 20 23 21 22 21 22 21 19 19 19 19 18 18 17 17 16 16 16 16
24 21 21 21 22 22 21 21 22 22 22 22 19 18 17 20 22 21 22 23 22 19 18 21 22 24 23 23 24 24 23 24 22 23 19 19 18 18 17 17 17 17 17
22 22 21 22 23 23 23 22 21 20 19 19 19 18 14 20 22 21 20 19 18 18 19 22 25 23 21 22 26 25 24 21 22 22 19 19 18 19 18 17 17 17 17
22 23 23 23 23 22 21 20 19 19 20 21 23 23 15 19 23 24 25 23 22 22 21 24 24 22 20 21 22 24 24 24 25 26 20 20 20 19 18 17 18 18 18
23 24 24 24 23 21 20 21 22 23 26 28 27 26 28 28 28 27 26 26 25 22 20 19 20 20 23 21 22 22 23 23 24 28 22 22 21 20 19 18 17 19 19
23 22 21 21 21 22 24 27 28 27 28 28 30 30 29 29 28 27 26 25 25 25 24 21 20 20 21 21 22 23 26 24 27 24 27 23 22 20 19 17 17 19 19
21 22 23 23 26 27 28 30 28 29 30 29 29 30 30 29 28 27 26 26 25 24 22 21 21 22 22 23 22 24 28 22 24 23 24 25 23 21 19 16 18 20 20
25 26 27 27 29 27 25 28 31 29 30 29 29 30 30 28 26 26 26 26 24 23 23 21 22 23 23 23 24 25 22 20 21 22 23 22 21 19 18 18 20 20 20